Location: Rosenheim
(47.8408°N, 12.2113°E)
Time: 16:46:53
(UTC+01:00)

ISS - Pass Details

Date: 14 November 2017
Orbit: 402 x 407 km, 51.6° (Epoch: 19 November)

Event Time Altitude Azimuth Distance (km) Brightness Sun altitude
Exits shadow 04:12:44 12° 83° (E) 1,315 -0.4 -30.6°
Drops below altitude 10° 04:12:59 11° 85° (E) 1,410 -0.2 -30.5°
Sets 04:15:14 0° 92° (E) 2,314 1.2 -30.2°
